Location: Drocourt
(49.0571°N, 1.7669°E)
Time: 18:52:19
(UTC+00:00)

deb Explorer IX - All Passes

Search period start: 19 April 2024 00:00
Search period end: 29 April 2024 00:00
Orbit: 513 x 903 km, 38.7° (Epoch: 17 April)

Date Brightness Start Highest point End Pass type
(mag) Time Alt. Az. Time Alt. Az. Time Alt. Az.
19 Apr - 11:26:35 10° SSW 11:31:07 22° SSE 11:35:45 10° ESE daylight
19 Apr - 13:09:27 10° WSW 13:14:49 31° S 13:20:09 10° ESE daylight
19 Apr - 14:53:33 10° WSW 14:58:35 26° SSW 15:03:29 10° SE daylight
19 Apr - 16:39:30 10° WSW 16:41:57 13° SSW 16:44:19 10° S daylight
20 Apr - 10:29:02 10° SSW 10:32:48 17° SSE 10:36:40 10° ESE daylight
20 Apr - 12:11:09 10° SW 12:16:21 30° S 12:21:37 10° ESE daylight
20 Apr - 13:54:53 10° WSW 14:00:09 30° S 14:05:21 10° SE daylight
20 Apr - 15:39:49 10° WSW 15:43:42 17° SSW 15:47:29 10° SSE daylight
21 Apr - 09:32:10 10° S 09:34:31 12° SSE 09:36:54 10° SE daylight
21 Apr - 11:12:58 10° SW 11:17:51 26° SSE 11:22:53 10° ESE daylight
21 Apr - 12:56:17 10° WSW 13:01:37 31° S 13:06:59 10° ESE daylight
21 Apr - 14:40:40 10° WSW 14:45:19 22° SSW 14:49:50 10° SSE daylight
22 Apr - 10:15:01 10° SSW 10:19:21 22° SSE 10:23:54 10° ESE daylight
22 Apr - 11:57:47 10° WSW 12:03:00 31° S 12:08:23 10° ESE daylight
22 Apr - 13:41:46 10° WSW 13:46:47 26° SSW 13:51:47 10° SE daylight
22 Apr - 15:27:36 10° WSW 15:30:10 13° SSW 15:32:41 10° S daylight
23 Apr - 09:17:22 10° S 09:20:53 17° SSE 09:24:33 10° ESE daylight
23 Apr - 10:59:21 10° SW 11:04:22 29° S 11:09:35 10° ESE daylight
23 Apr - 12:42:58 10° WSW 12:48:08 29° S 12:53:23 10° SE daylight
23 Apr - 14:27:48 10° WSW 14:31:41 17° SSW 14:35:34 10° SSE daylight
24 Apr - 08:20:31 10° SSE 08:22:26 12° SSE 08:24:24 10° SE daylight
24 Apr - 10:01:05 10° SW 10:05:42 25° SSE 10:10:35 10° ESE daylight
24 Apr - 11:44:16 10° WSW 11:49:24 31° S 11:54:45 10° ESE daylight
24 Apr - 13:28:33 10° WSW 13:33:05 22° SSW 13:37:39 10° SSE daylight
25 Apr - 09:03:01 10° SSW 09:07:03 21° SSE 09:11:20 10° ESE daylight
25 Apr - 10:45:39 10° SW 10:50:37 30° S 10:55:53 10° ESE daylight
25 Apr - 12:29:31 10° WSW 12:34:22 26° SSW 12:39:19 10° SE daylight
25 Apr - 14:15:18 10° SW 14:17:45 12° SSW 14:20:13 10° S daylight
26 Apr - 08:05:18 10° S 08:08:25 16° SSE 08:11:43 10° ESE daylight
26 Apr - 09:47:07 10° SW 09:51:48 28° S 09:56:50 10° ESE daylight
26 Apr - 11:30:37 10° WSW 11:35:31 28° S 11:40:41 10° SE daylight
26 Apr - 13:15:22 10° WSW 13:19:05 17° SSW 13:22:51 10° SSE daylight
27 Apr - 07:08:44 10° SSE 07:09:50 11° SSE 07:10:58 10° SE daylight
27 Apr - 08:48:45 10° SW 08:53:01 24° SSE 08:57:35 10° ESE daylight
27 Apr - 10:31:49 10° WSW 10:36:38 29° S 10:41:47 10° SE daylight
27 Apr - 12:15:59 10° WSW 12:20:17 21° SSW 12:24:42 10° SSE daylight
28 Apr - 07:50:35 10° SSW 07:54:13 19° SSE 07:58:06 10° ESE daylight
28 Apr - 09:33:05 10° SW 09:37:42 29° S 09:42:41 10° ESE daylight
28 Apr - 11:16:50 10° WSW 11:21:22 24° SSW 11:26:09 10° SE daylight
28 Apr - 13:02:41 10° SW 13:04:46 12° SSW 13:06:53 10° S daylight
